Regional Weather Roundup
Issued by NWS Glasgow, MT

Home | Current Version | Previous Version | Text Only | Print | Product List | Glossary On
Versions: 1 2 3 4 5 6 7 8 9 10 11 12 13 14 15 16 17 18 19 20 21 22 23 24 25 26 27 28 29 30 31 32 33 34 35 36 37 38 39 40 41 42 43 44 45 46 47 48 49 50
000
ASUS45 KGGW 290515
RWRGGW
HOURLY REGIONAL WEATHER ROUNDUP FOR NORTHEAST MONTANA
NATIONAL WEATHER SERVICE GLASGOW MONTANA
1100 PM MDT THU APR 28 2016

NOTE: "FAIR" INDICATES FEW OR NO CLOUDS BELOW 12,000 FEET WITH NO
SIGNIFICANT WEATHER AND/OR OBSTRUCTIONS TO VISISBILITY.

NORTHEAST MONTANA


CITY           SKY/WX    TMP DP  RH WIND       PRES   REMARKS
GLASGOW        CLOUDY    42  32  67 S7        30.14R
PLENTYWOOD       N/A     45  19  35 E7          N/A
WOLF POINT     CLOUDY    45  36  70 NE6       30.15S
JORDAN           N/A     42  34  73 S8        30.12S
WINNETT          N/A     38  36  92 E3          N/A
SIDNEY         CLOUDY    45  28  53 CALM      30.16S
GLENDIVE       CLOUDY    41  36  81 W3        30.17S
MALTA            N/A     46  37  71 S6          N/A
SCOBEY           N/A     41  19  41 E7        30.13S
OPHEIM           N/A     39  23  52 CALM      30.06S

FORT PECK REPORTS


CITY           SKY/WX    TMP DP  RH WIND       PRES   REMARKS
FORT PECK        N/A     43  36  76 S9          N/A
THE PINES        N/A     43  35  73 S5          N/A

SOUTHEAST MONTANA


CITY           SKY/WX    TMP DP  RH WIND       PRES   REMARKS
BILLINGS       CLOUDY    36  34  92 NE5       30.09F
MILES CITY     CLOUDY    41  34  76 SE9       30.13S
BAKER          CLOUDY    39  34  82 S5        30.15S
LIVINGSTON     CLOUDY    35  28  75 E16       30.03F

CENTRAL MONTANA


CITY           SKY/WX    TMP DP  RH WIND       PRES   REMARKS
HAVRE          CLOUDY    45  36  70 CALM      30.11S
LEWISTOWN      CLOUDY    37  31  78 E8        30.08F
GREAT FALLS    CLOUDY    38  33  82 E9        30.06S
CUT BANK       MOCLDY    38  35  89 CALM      30.08S
HELENA         CLOUDY    40  31  70 W8        30.02S
BUTTE          CLOUDY    34  31  88 CALM      29.99F
BOZEMAN        CLOUDY    39  26  59 NE3       30.00F

WESTERN MONTANA


CITY           SKY/WX    TMP DP  RH WIND       PRES   REMARKS
MISSOULA       MOCLDY    41  30  65 NE5       30.02S
KALISPELL      NOT AVBL

NORTH DAKOTA


CITY           SKY/WX    TMP DP  RH WIND       PRES   REMARKS
WILLISTON      CLOUDY    43  27  53 N3        30.16F
DICKINSON      MOCLDY    40  28  62 E5        30.12S
MINOT          CLOUDY    46  21  37 NE6       30.18S
BISMARCK       CLOUDY    46  32  58 NE8       30.16S

SOUTHERN SASKATCHEWAN


CITY           SKY/WX    TMP DP  RH WIND       PRES   REMARKS
REGINA         MOCLDY    46  19  34 E12       30.20S
ESTEVAN        CLOUDY    41  16  36 E12       30.20R
SWIFT CURRENT  CLEAR     37  23  56 SE8       30.12S




USA.gov is the U.S. government's official web portal to all federal, state and local government web resources and services.